FW3192 Weather Reports


Display with metric or nautical units.
time (UTC)temp
F
wind
direction
speed
MPH
gust
MPH
rain 1hr
in
rain 24hr
in
rain mn
in
humidity
%
barometer
mb
20260503231525 60 194 6.0 14.0 0.00 0.00 0.00 86 1012.9
20260503230020 60 255 5.0 15.0 0.00 0.00 0.00 87 1012.6
20260503224518 59 237 7.0 14.0 0.00 0.00 0.00 90 1012.4
20260503223018 58 269 5.0 12.0 0.00 0.00 0.00 90 1012.3
20260503221513 58 302 6.0 13.0 0.00 0.00 0.00 91 1011.9
20260503220011 58 270 7.0 14.0 0.00 0.00 0.00 91 1011.7
20260503214511 58 284 5.0 14.0 0.00 0.00 0.00 89 1011.4
20260503213054 58 266 6.0 12.0 0.00 0.00 0.00 89 1011.4
20260503211554 58 280 4.0 9.0 0.00 0.00 0.00 89 1011.4
20260503210052 58 225 4.0 11.0 0.00 0.00 0.00 89 1011.3
20260503204551 57 261 4.0 10.0 0.00 0.00 0.00 89 1011.2
20260503203055 57 288 6.0 12.0 0.00 0.00 0.00 89 1010.9
20260503201550 57 277 5.0 16.0 0.00 0.00 0.00 90 1010.7
20260503200049 57 285 7.0 17.0 0.00 0.00 0.00 89 1010.7
20260503194548 58 275 8.0 16.0 0.00 0.00 0.00 87 1010.5
20260503193047 58 294 6.0 15.0 0.00 0.00 0.00 87 1010.4
20260503191545 59 230 6.0 16.0 0.00 0.00 0.00 84 1010.4
20260503190046 59 256 9.0 15.0 0.00 0.00 0.00 82 1010.3
20260503184547 59 267 7.0 18.0 0.00 0.00 0.00 82 1010.3
20260503183041 59 260 6.0 13.0 0.00 0.00 0.00 83 1010.3
20260503181541 59 276 8.0 14.0 0.00 0.00 0.00 83 1010.3
20260503180042 59 280 9.0 16.0 0.00 0.00 0.00 83 1010.3
20260503174531 58 294 8.0 15.0 0.00 0.00 0.00 83 1010.3
20260503173026 58 266 8.0 15.0 0.00 0.00 0.00 83 1010.5
20260503171527 58 325 8.0 16.0 0.00 0.00 0.00 84 1010.5
20260503081515 60 309 9.0 15.0 0.00 0.00 0.00 77 1010.1
20260503071551 61 291 13.0 23.0 0.00 0.00 0.00 73 1009.8
20260503060107 61 289 16.0 30.0 0.00 0.00 0.00 75 1009.8
20260503054542 64 293 16.0 27.0 0.00 0.00 0.00 59 1009.3
20260503053041 65 306 17.0 27.0 0.00 0.00 0.00 61 1009.2
20260503051526 65 265 14.0 30.0 0.00 0.00 0.00 57 1009.2
20260503050027 65 276 12.0 28.0 0.00 0.00 0.00 62 1009.3
20260503044525 66 291 17.0 0.0 0.00 0.00 0.00 59 1009.2
20260503043036 65 258 17.0 26.0 0.00 0.00 0.00 60 1009.2
20260503041523 66 309 11.0 28.0 0.00 0.00 0.00 60 1009.4
20260503040018 66 306 14.0 28.0 0.00 0.00 0.00 59 1009.4
20260503034515 65 286 15.0 29.0 0.00 0.00 0.00 59 1009.7
20260503033113 65 261 12.0 22.0 0.00 0.00 0.00 63 1009.9
20260503031559 65 292 14.0 23.0 0.00 0.00 0.00 64 1009.8
20260503024555 65 294 18.0 31.0 0.00 0.00 0.00 61 1010.1
20260503023059 63 303 18.0 29.0 0.00 0.00 0.00 69 1010.1
20260503021558 64 329 14.0 26.0 0.00 0.00 0.00 68 1010.3
20260503020056 63 290 21.0 30.0 0.00 0.00 0.00 67 1010.3
20260503014546 62 302 21.0 30.0 0.00 0.00 0.00 68 1010.4
20260503013044 62 297 18.0 30.0 0.00 0.00 0.00 67 1010.3
20260503011528 62 303 16.0 26.0 0.00 0.00 0.00 67 1010.4
20260503010024 62 289 16.0 28.0 0.00 0.00 0.00 69 1010.6
20260503004522 62 282 20.0 29.0 0.00 0.00 0.00 69 1010.6
20260503003020 61 299 20.0 27.0 0.00 0.00 0.00 71 1010.7
20260503001516 60 300 18.0 23.0 0.00 0.00 0.00 75 1010.8
20260503000013 59 313 12.0 20.0 0.00 0.00 0.00 77 1010.9
20260502234509 58 326 14.0 22.0 0.00 0.00 0.00 77 1010.9
20260502233006 58 333 14.0 18.0 0.00 0.00 0.00 79 1010.9